Вернуться в каталог

SATCOM K1 R/B

PAM-D2

АктивенHEO
NORAD 16483·ROCKET BODY·🇺🇸 United States

Запущен Jan 12, 1986 с Cape Canaveral Space Force Station

Loading…

Ближайшие Пролёты (ближайшие 24 часа)

TLE

СвежийSource: Space-Track

Эпоха: Sep 12, 2026, 21:07 UTC

1 16483U 86003C   26255.88021328  .00000589  00000-0  50289-3 0  9990
2 16483  26.8549 132.4675 7068751 161.1730 251.5279  2.50015785356388

Отслеживайте SATCOM K1 R/B в реальном времени с AllMySat

Download on the App Store